Location: STAR School
(35.3054°N, 111.2976°W)
Time: 06:52:46
(UTC-07:00)

SR - Pass Details

Date: 27 May 2019
Orbit: 582 x 874 km, 66.7° (Epoch: 25 June)

Event Time Altitude Azimuth Distance (km) Brightness Sun altitude
Rises 21:00:59 0° 304° (NW) 3,030 ? -15.9°
Reaches altitude 10° 21:05:19 10° 267° (W) 2,193 ? -16.5°
Maximum altitude 21:06:22 11° 255° (WSW) 2,170 ? -16.7°
Drops below altitude 10° 21:07:26 10° 242° (WSW) 2,232 ? -16.9°
Sets 21:12:04 0° 206° (SSW) 3,240 ? -17.5°
